User: anonymous   Login
Location: Unspecified
(0.0000°N, 0.0000°E)
Time: 01:03:43
(UTC+00:00)
Language:

YAOGAN-30 V - Orbit

View from above orbital plane
View from above orbital plane
View from above satellite
View from above satellite

Ground track
Ground track

The orbit is defined by the following mean orbital elements,

1 46808U          26145.63456928 +.00000000 +00000-0 +16871-3 0 00006
2 46808  34.9938 228.4399 0000955 213.4836 146.5812 15.02595721    01
Epoch (UTC): 25 May 2026 15:13:46
Eccentricity: 0.0000955
inclination: 34.9938°
perigee height: 558 km
apogee height: 560 km
right ascension of ascending node: 228.4399°
argument of perigee: 213.4836°
revolutions per day: 15.02595721
mean anomaly at epoch: 146.5812°

The dashed part of the orbit path shows where the satellite is in the earth's shadow,  

DLR